Location: Unspecified
(38.8195°N, 0.0000°E)
Time: 02:24:52
(UTC+00:00)

Tiros 1 despin weight - All Passes

Search period start: 04 April 2026 00:00
Search period end: 14 April 2026 00:00
Orbit: 555 x 593 km, 48.2° (Epoch: 29 March)

Date Brightness Start Highest point End Pass type
(mag) Time Alt. Az. Time Alt. Az. Time Alt. Az.
4 Apr - 00:25:39 10° NW 00:29:15 24° N 00:32:52 10° ENE night (unlit)
4 Apr - 02:06:24 10° NW 02:10:37 43° NNE 02:14:50 10° E visible
4 Apr - 03:47:01 10° WNW 03:51:13 43° SW 03:55:23 10° SSE visible
4 Apr - 19:25:36 10° S 19:28:45 20° SE 19:31:57 10° E visible
4 Apr - 21:04:36 10° WSW 21:08:57 75° NNW 21:13:21 10° NE visible
4 Apr - 22:46:15 10° WNW 22:50:02 27° NNW 22:53:50 10° NE night (unlit)
5 Apr - 00:27:52 10° NW 00:31:34 25° N 00:35:16 10° ENE night (unlit)
5 Apr - 02:08:25 10° NW 02:12:47 58° NNE 02:17:07 10° ESE night (unlit)
5 Apr - 03:49:22 10° WNW 03:53:09 28° SW 03:56:54 10° SSE visible
5 Apr - 19:26:50 10° SSW 19:30:38 31° SE 19:34:30 10° ENE visible
5 Apr - 21:06:49 10° WSW 21:11:04 53° NNW 21:15:22 10° NE visible
5 Apr - 22:48:41 10° WNW 22:52:19 25° N 22:55:58 10° NE night (unlit)
6 Apr - 00:30:00 10° NW 00:33:51 29° NNE 00:37:42 10° ENE night (unlit)
6 Apr - 02:10:27 10° WNW 02:14:52 83° NNE 02:19:17 10° ESE night (unlit)
6 Apr - 03:52:01 10° W 03:55:01 18° SW 03:57:59 10° S visible
6 Apr - 19:28:25 10° SW 19:32:34 49° SE 19:36:47 10° ENE visible
6 Apr - 21:09:07 10° W 21:13:13 40° NNW 21:17:22 10° NE visible
6 Apr - 22:51:03 10° NW 22:54:37 24° N 22:58:12 10° NE visible
7 Apr - 00:32:03 10° NW 00:36:05 34° NNE 00:40:08 10° E night (unlit)
7 Apr - 02:12:31 10° WNW 02:16:55 67° SW 02:21:16 10° SE night (unlit)
7 Apr - 03:55:40 10° WSW 03:56:49 11° SW 03:57:58 10° SW night (unlit)
7 Apr - 17:52:50 10° SSE 17:54:36 12° SE 17:56:23 10° ESE daylight
7 Apr - 19:30:15 10° SW 19:34:33 75° SE 19:38:55 10° ENE visible
7 Apr - 21:11:30 10° W 21:15:25 32° NNW 21:19:24 10° NE visible
7 Apr - 22:53:20 10° NW 22:56:55 24° N 23:00:31 10° ENE visible
8 Apr - 00:34:03 10° NW 00:38:16 43° NNE 00:42:29 10° E night (unlit)
8 Apr - 02:14:41 10° WNW 02:18:52 43° SW 02:23:01 10° SSE night (unlit)
8 Apr - 17:53:16 10° S 17:56:24 20° SE 17:59:34 10° E daylight
8 Apr - 19:32:16 10° WSW 19:36:35 74° NNW 19:40:58 10° NE visible
8 Apr - 21:13:55 10° WNW 21:17:39 27° NNW 21:21:26 10° NE visible
8 Apr - 22:55:31 10° NW 22:59:12 25° N 23:02:53 10° ENE visible
9 Apr - 00:36:02 10° NW 00:40:24 59° NNE 00:44:45 10° ESE night (unlit)
9 Apr - 02:17:00 10° WNW 02:20:46 28° SW 02:24:31 10° SSE night (unlit)
9 Apr - 17:54:28 10° SSW 17:58:15 31° SE 18:02:05 10° ENE daylight
9 Apr - 19:34:27 10° WSW 19:38:40 52° NNW 19:42:57 10° NE visible
9 Apr - 21:16:19 10° WNW 21:19:55 25° N 21:23:33 10° NE visible
9 Apr - 22:57:36 10° NW 23:01:26 29° NNE 23:05:17 10° ENE visible
10 Apr - 00:38:02 10° WNW 00:42:28 83° NNE 00:46:52 10° ESE night (unlit)
10 Apr - 02:19:37 10° W 02:22:36 18° SW 02:25:33 10° S night (unlit)
10 Apr - 17:56:01 10° SW 18:00:09 49° SE 18:04:20 10° ENE daylight
10 Apr - 19:36:44 10° W 19:40:47 39° NNW 19:44:55 10° NE visible
10 Apr - 21:18:39 10° NW 21:22:11 23° N 21:25:45 10° NE visible
10 Apr - 22:59:37 10° NW 23:03:38 34° NNE 23:07:41 10° E visible
11 Apr - 00:40:05 10° WNW 00:44:27 66° SW 00:48:49 10° SE night (unlit)
11 Apr - 02:23:16 10° WSW 02:24:22 11° SW 02:25:27 10° SW night (unlit)
11 Apr - 16:20:24 10° SSE 16:22:09 12° SE 16:23:54 10° ESE daylight
11 Apr - 17:57:49 10° SW 18:02:05 76° SSE 18:06:26 10° ENE daylight
11 Apr - 19:39:05 10° W 19:42:58 32° NNW 19:46:53 10° NE visible
11 Apr - 21:20:54 10° NW 21:24:27 24° N 21:28:01 10° ENE visible
11 Apr - 23:01:36 10° NW 23:05:47 43° NNE 23:10:00 10° E visible
12 Apr - 00:42:12 10° WNW 00:46:23 43° SW 00:50:32 10° SSE night (unlit)
12 Apr - 16:20:48 10° S 16:23:55 20° SE 16:27:03 10° E daylight
12 Apr - 17:59:49 10° WSW 18:04:05 74° NNW 18:08:26 10° NE daylight
12 Apr - 19:41:28 10° WNW 19:45:10 27° NNW 19:48:54 10° NE visible
12 Apr - 21:23:02 10° NW 21:26:41 25° N 21:30:21 10° ENE visible
12 Apr - 23:03:32 10° NW 23:07:53 59° NNE 23:12:14 10° ESE visible
13 Apr - 00:44:29 10° WNW 00:48:14 27° SW 00:51:58 10° SSE night (unlit)
13 Apr - 16:21:58 10° SSW 16:25:44 31° SE 16:29:32 10° ENE daylight
13 Apr - 18:01:57 10° WSW 18:06:08 52° NNW 18:10:22 10° NE daylight
13 Apr - 19:43:49 10° WNW 19:47:23 24° N 19:50:59 10° NE visible
13 Apr - 21:25:05 10° NW 21:28:53 28° NNE 21:32:44 10° ENE visible
13 Apr - 23:05:30 10° WNW 23:09:54 84° NNE 23:14:19 10° ESE visible
